sat.trackr.live / text

‹ back to catalog

GONETS-M 24

NORAD 54151 · 2022-139B

PAYLOAD ACTIVE UNKNOWN

§ Identity

Operator
Country
CIS
Launch date
2022-10-22
Launch site
VOSTO
Launch vehicle
Mass (kg)
RCS (m²)

External: N2YO · Heavens-Above · Gunter

§ Orbital elements

Epoch: 2026-05-25T03:11:54.109824Z

Period
115.86 min
Inclination
82.4999°
Eccentricity
0.0015815
Mean motion
12.42890354 rev/d
Perigee alt
1,481.9 km
Apogee alt
1,506.8 km
Semi-major
7,872.5 km
B*
1.4390e-4
RAAN
1.6992°
Arg perigee
283.9866°
Mean anomaly
75.9455°
Rev number
16,278

§ Raw data

GONETS-M 241 54151U 22139B   26145.13326516  .00000030  00000+0  14390-3 0  99902 54151  82.4999   1.6992 0015815 283.9866  75.9455 12.42890354162785

JSON: /api/v1/satellites/54151 · /tle

For live sub-satellite position, see the globe view (requires WebGL).

§ Visibility from observer

Set your observer location to see the next 7 days of passes ≥ 10°. The values pass through the URL so the page stays shareable.

No JS? Fill the form by hand. The geolocation button needs JavaScript.

§ Radio — SatNOGS DB

ModeDescriptionDownlinkUplink
FM UHF Unknown 388.500 MHz
FM UHF Unknown 387.775 MHz
FM UHF Unknown 388.687 MHz
FM UHF Unknown 388.787 MHz
FM UHF Unknown 262.910 MHz

5 transmitters · refreshed weekly from db.satnogs.org